INTELSAT 28 (IS-28)

Last updated on Fri Sep 11 2026 00:02:56 GMT+0000 (Coordinated Universal Time)

1 37392U 11016A 26253.43466253 -.00000243 00000+0 00000+0 0 9992 2 37392 2.0204 81.4765 0003552 94.1466 298.6218 1.00274624 54146
UTC large
Height (km)
Speed (km/s)
/
Latitude / Longitude
Inclination (degrees)
Orbital Period (minutes)
Azimuth
Elevation
Range (km)
Doppler Factor

Next 0 passes for location: London (51.5072 / 0.1276)

No passes found over London.
INTELSAT 28 (IS-28)